Regional Weather Roundup
Issued by NWS Newport/Morehead, NC

Current Version | Previous Version | Text Only | Print | Product List | Glossary On
Versions: 1 2 3 4 5 6 7 8 9 10 11 12 13 14 15 16 17 18 19 20 21 22 23 24 25 26 27 28 29 30 31 32 33 34 35 36 37 38 39 40 41 42 43 44 45 46 47 48 49 50
257 ASUS42 KMHX 210322 RWRMHX WEATHER ROUNDUP FOR EASTERN NORTH CAROLINA NATIONAL WEATHER SERVICE NEWPORT/MOREHEAD CITY NC 1000 PM EST SAT JAN 20 2018 NOTE: "FAIR" INDICATES FEW OR NO CLOUDS BELOW 12,000 FEET WITH NO SIGNIFICANT WEATHER AND/OR OBSTRUCTIONS TO VISIBILITY NCZ015>017-031-032-045>047-102-103-210400- NORTH COAST CITY SKY/WX TMP DP RH WIND PRES REMARKS EDENTON FAIR 49 28 44 SW7 30.17R ELIZABETH CITY FAIR 43 33 68 SW6 30.15R KITTY HAWK FAIR 42 30 62 CALM 30.14S MANTEO FAIR 39 32 76 CALM 30.18R $$ NCZ045>047-081-094-103-104-210400- CENTRAL COAST CITY SKY/WX TMP DP RH WIND PRES REMARKS FRISCO FAIR 51 41 68 W10G20 30.19R $$ NCZ095-097-098-100-101-210400- SOUTHERN COAST CITY SKY/WX TMP DP RH WIND PRES REMARKS BEAUFORT FAIR 48 35 60 W9 30.21R CEDAR ISLAND NOT AVBL JACKSONVILLE FAIR 45 28 51 SW7 30.21S PINEY ISLAND NOT AVBL WILMINGTON FAIR 41 31 67 CALM 30.22F $$ NCZ011>013-027>030-043-044-078>080-089-090>093-098-210400- COASTAL PLAIN CITY SKY/WX TMP DP RH WIND PRES REMARKS AHOSKIE FAIR 44 31 60 CALM 30.16R CLINTON FAIR 42 26 55 CALM 30.22S ELIZABETHTOWN NOT AVBL GOLDSBORO FAIR 45 23 41 SW5 30.19R GREENVILLE FAIR 46 27 46 SW8 30.20R HAVELOCK NOT AVBL KENANSVILLE FAIR 39 27 60 CALM 30.21S KINSTON FAIR 46 25 42 SW6 30.20R NEW BERN FAIR 45 28 51 SW7 30.22R RICHLANDS FAIR 42 29 59 SW5 30.22R ROCKY MOUNT NOT AVBL WASHINGTON FAIR 45 24 44 SW7 30.19S WHITEVILLE FAIR 44 31 60 CALM 30.22R $$ AMZ130-135-150-152-154-156-158-170-250-252-270-ANZ085-086-088-633-658-670-210400- MARINE OBSERVATIONS STATION/POSITION TIME TEMP WIND PRES WAVE SWELL AIR SEA DIR/SP/G HT/PER HT/PER (UTC) (F) (DEG/KT/KT) (MB) (FT/S) (FT/S) CHESAPEAKE LIGHT NOT AVBL 64 E VA BEACH NOT AVBL DUCK NOT AVBL 2 E DUCK NOT AVBL OREGON INLET NOT AVBL 13E OREGON INLT NOT AVBL HATTERAS CG NOT AVBL DIAMOND BUOY NOT AVBL CAPE LOOKOUT NOT AVBL BEAUFORT LAB NOT AVBL 30 SE NEW RVR IN NOT AVBL 30 SE NEW RVR IN NOT AVBL 27 SE WRIGHTSVLE NOT AVBL 5 SE WRIGHTSVLE NOT AVBL 225 S CAPE HAT NOT AVBL 41 SE CHARLESTON NOT AVBL $$

USA.gov is the U.S. government's official web portal to all federal, state and local government web resources and services.